TimeEDT,TemperatureF,Dew PointF,Humidity,Sea Level PressureIn,VisibilityMPH,Wind Direction,Wind SpeedMPH,Gust SpeedMPH,PrecipitationIn,Events,Conditions,WindDirDegrees,DateUTC
12:00 AM,50.0,42.8,76,30.36,10.0,Calm,Calm,-,N/A,,Clear,0,2013-09-18 04:00:00
12:20 AM,50.0,42.8,76,30.36,10.0,Calm,Calm,-,N/A,,Clear,0,2013-09-18 04:20:00
12:40 AM,50.0,42.8,76,30.36,10.0,Calm,Calm,-,N/A,,Clear,0,2013-09-18 04:40:00
1:00 AM,50.0,42.8,76,30.36,10.0,Calm,Calm,-,N/A,,Clear,0,2013-09-18 05:00:00
1:20 AM,48.2,42.8,82,30.36,10.0,Calm,Calm,-,N/A,,Clear,0,2013-09-18 05:20:00
1:40 AM,48.2,42.8,82,30.36,10.0,Calm,Calm,-,N/A,,Clear,0,2013-09-18 05:40:00
2:00 AM,48.2,42.8,82,30.36,10.0,Calm,Calm,-,N/A,,Clear,0,2013-09-18 06:00:00
2:20 AM,48.2,42.8,82,30.36,10.0,Calm,Calm,-,N/A,,Clear,0,2013-09-18 06:20:00
2:40 AM,48.2,42.8,82,30.35,10.0,Calm,Calm,-,N/A,,Clear,0,2013-09-18 06:40:00
3:00 AM,48.2,44.6,87,30.35,10.0,Calm,Calm,-,N/A,,Clear,0,2013-09-18 07:00:00
3:20 AM,48.2,42.8,82,30.34,10.0,Calm,Calm,-,N/A,,Clear,0,2013-09-18 07:20:00
3:40 AM,46.4,42.8,87,30.34,10.0,Calm,Calm,-,N/A,,Clear,0,2013-09-18 07:40:00
4:00 AM,46.4,42.8,87,30.34,10.0,Calm,Calm,-,N/A,,Clear,0,2013-09-18 08:00:00
4:20 AM,46.4,42.8,87,30.34,10.0,Calm,Calm,-,N/A,,Clear,0,2013-09-18 08:20:00
4:40 AM,46.4,42.8,87,30.33,10.0,Calm,Calm,-,N/A,,Clear,0,2013-09-18 08:40:00
5:00 AM,46.4,42.8,87,30.34,10.0,Calm,Calm,-,N/A,,Clear,0,2013-09-18 09:00:00
5:20 AM,46.4,42.8,87,30.34,10.0,Calm,Calm,-,N/A,,Clear,0,2013-09-18 09:20:00
5:40 AM,46.4,42.8,87,30.34,10.0,Calm,Calm,-,N/A,,Clear,0,2013-09-18 09:40:00
6:00 AM,46.4,42.8,87,30.34,10.0,Calm,Calm,-,N/A,,Clear,0,2013-09-18 10:00:00
6:20 AM,46.4,42.8,87,30.34,10.0,Calm,Calm,-,N/A,,Clear,0,2013-09-18 10:20:00
6:40 AM,44.6,42.8,93,30.34,10.0,Calm,Calm,-,N/A,,Clear,0,2013-09-18 10:40:00
7:00 AM,44.6,42.8,93,30.34,7.0,Calm,Calm,-,N/A,,Clear,0,2013-09-18 11:00:00
7:20 AM,46.4,42.8,87,30.34,10.0,Calm,Calm,-,N/A,,Clear,0,2013-09-18 11:20:00
7:40 AM,46.4,44.6,93,30.35,10.0,Calm,Calm,-,N/A,,Clear,0,2013-09-18 11:40:00
8:00 AM,48.2,44.6,87,30.34,10.0,Calm,Calm,-,N/A,,Clear,0,2013-09-18 12:00:00
8:20 AM,50.0,46.4,87,30.34,10.0,Calm,Calm,-,N/A,,Clear,0,2013-09-18 12:20:00
8:40 AM,51.8,48.2,88,30.34,10.0,Calm,Calm,-,N/A,,Clear,0,2013-09-18 12:40:00
9:00 AM,53.6,50.0,88,30.35,10.0,Calm,Calm,-,N/A,,Clear,0,2013-09-18 13:00:00
9:20 AM,55.4,51.8,88,30.35,10.0,South,3.5,-,N/A,,Clear,190,2013-09-18 13:20:00
9:40 AM,55.4,50.0,82,30.35,10.0,SW,3.5,-,N/A,,Clear,220,2013-09-18 13:40:00
10:00 AM,57.2,50.0,77,30.35,10.0,SSW,4.6,-,N/A,,Clear,210,2013-09-18 14:00:00
10:20 AM,59.0,48.2,67,30.34,10.0,South,4.6,-,N/A,,Clear,180,2013-09-18 14:20:00
10:40 AM,59.0,46.4,63,30.34,10.0,Calm,Calm,-,N/A,,Clear,0,2013-09-18 14:40:00
11:00 AM,60.8,46.4,59,30.33,10.0,South,4.6,-,N/A,,Clear,180,2013-09-18 15:00:00
11:20 AM,62.6,46.4,55,30.33,10.0,Calm,Calm,-,N/A,,Clear,0,2013-09-18 15:20:00
11:40 AM,60.8,46.4,59,30.33,10.0,SSW,3.5,-,N/A,,Clear,210,2013-09-18 15:40:00
12:00 PM,62.6,46.4,55,30.32,10.0,South,5.8,-,N/A,,Clear,170,2013-09-18 16:00:00
12:20 PM,62.6,46.4,55,30.31,10.0,Calm,Calm,-,N/A,,Clear,0,2013-09-18 16:20:00
12:40 PM,64.4,44.6,49,30.30,10.0,SW,6.9,-,N/A,,Clear,220,2013-09-18 16:40:00
1:00 PM,66.2,44.6,46,30.30,10.0,WSW,5.8,-,N/A,,Clear,240,2013-09-18 17:00:00
1:20 PM,66.2,46.4,49,30.29,10.0,South,6.9,-,N/A,,Clear,170,2013-09-18 17:20:00
1:40 PM,68.0,44.6,43,30.28,10.0,SSW,3.5,-,N/A,,Clear,200,2013-09-18 17:40:00
2:00 PM,69.8,46.4,43,30.27,10.0,SW,5.8,-,N/A,,Clear,220,2013-09-18 18:00:00
2:20 PM,69.8,46.4,43,30.27,10.0,Calm,Calm,-,N/A,,Clear,0,2013-09-18 18:20:00
2:40 PM,71.6,46.4,41,30.26,10.0,SE,8.1,-,N/A,,Clear,140,2013-09-18 18:40:00
3:00 PM,69.8,46.4,43,30.25,10.0,SSE,6.9,-,N/A,,Clear,150,2013-09-18 19:00:00
3:20 PM,71.6,46.4,41,30.24,10.0,Calm,Calm,-,N/A,,Clear,0,2013-09-18 19:20:00
3:40 PM,69.8,44.6,40,30.24,10.0,South,4.6,-,N/A,,Clear,170,2013-09-18 19:40:00
4:00 PM,69.8,46.4,43,30.23,10.0,SSE,3.5,-,N/A,,Clear,160,2013-09-18 20:00:00
4:20 PM,71.6,46.4,41,30.22,10.0,Calm,Calm,-,N/A,,Clear,0,2013-09-18 20:20:00
4:40 PM,71.6,48.2,43,30.22,10.0,SSE,4.6,-,N/A,,Clear,150,2013-09-18 20:40:00
5:00 PM,71.6,48.2,43,30.22,10.0,South,4.6,-,N/A,,Clear,170,2013-09-18 21:00:00
5:20 PM,71.6,46.4,41,30.22,10.0,SSE,5.8,-,N/A,,Clear,160,2013-09-18 21:20:00
5:40 PM,71.6,46.4,41,30.22,10.0,South,5.8,-,N/A,,Clear,180,2013-09-18 21:40:00
6:00 PM,68.0,46.4,46,30.22,10.0,South,6.9,-,N/A,,Clear,190,2013-09-18 22:00:00
6:20 PM,66.2,46.4,49,30.22,10.0,South,4.6,-,N/A,,Clear,170,2013-09-18 22:20:00
6:40 PM,66.2,46.4,49,30.21,10.0,South,4.6,-,N/A,,Clear,170,2013-09-18 22:40:00
7:00 PM,66.2,46.4,49,30.22,10.0,SE,4.6,-,N/A,,Clear,140,2013-09-18 23:00:00
7:20 PM,62.6,48.2,59,30.21,10.0,SSE,4.6,-,N/A,,Clear,150,2013-09-18 23:20:00
7:40 PM,62.6,48.2,59,30.21,10.0,SE,4.6,-,N/A,,Clear,140,2013-09-18 23:40:00
8:00 PM,60.8,46.4,59,30.22,10.0,Calm,Calm,-,N/A,,Clear,0,2013-09-19 00:00:00
8:20 PM,59.0,46.4,63,30.22,10.0,Calm,Calm,-,N/A,,Clear,0,2013-09-19 00:20:00
8:40 PM,57.2,46.4,67,30.23,10.0,Calm,Calm,-,N/A,,Clear,0,2013-09-19 00:40:00
9:00 PM,57.2,44.6,63,30.23,10.0,SE,5.8,-,N/A,,Clear,140,2013-09-19 01:00:00
9:20 PM,59.0,44.6,59,30.23,10.0,SE,4.6,-,N/A,,Clear,140,2013-09-19 01:20:00
9:45 PM,57.2,44.6,63,30.23,10.0,Calm,Calm,-,N/A,,Clear,0,2013-09-19 01:45:00
10:05 PM,57.2,44.6,63,30.23,10.0,Calm,Calm,-,N/A,,Clear,0,2013-09-19 02:05:00
10:25 PM,55.4,46.4,72,30.23,10.0,Calm,Calm,-,N/A,,Clear,0,2013-09-19 02:25:00
10:45 PM,55.4,46.4,72,30.23,10.0,Calm,Calm,-,N/A,,Clear,0,2013-09-19 02:45:00
11:05 PM,55.4,46.4,72,30.22,10.0,Calm,Calm,-,N/A,,Clear,0,2013-09-19 03:05:00
11:25 PM,53.6,46.4,77,30.22,10.0,Calm,Calm,-,N/A,,Clear,0,2013-09-19 03:25:00
11:45 PM,53.6,46.4,77,30.22,10.0,Calm,Calm,-,N/A,,Clear,0,2013-09-19 03:45:00